| time (UTC) | temp C | wind direction | speed KPH | gust KPH | rain 1hr cm | rain 24hr cm | rain mn cm | humidity % | barometer mb |
| 20260507143212 | 13 | 246 | 12.9 | 0.0 | 0.00 | 0.00 | 0.30 | 73 | 1015.5 |
| 20260507140210 | 12 | 289 | 12.9 | 0.0 | 0.00 | 0.00 | 0.30 | 75 | 1015.7 |
| 20260507133210 | 12 | 241 | 9.7 | 0.0 | 0.00 | 0.00 | 0.30 | 75 | 1015.8 |
| 20260507130210 | 12 | 242 | 9.7 | 0.0 | 0.00 | 0.00 | 0.30 | 73 | 1015.6 |
| 20260507123210 | 12 | 242 | 11.3 | 0.0 | 0.00 | 0.00 | 0.30 | 76 | 1015.7 |
| 20260507120211 | 11 | 292 | 16.1 | 0.0 | 0.00 | 0.00 | 0.30 | 75 | 1015.5 |
| 20260507113210 | 11 | 257 | 14.5 | 0.0 | 0.00 | 0.00 | 0.30 | 79 | 1015.5 |
| 20260507110210 | 11 | 275 | 6.4 | 0.0 | 0.00 | 0.00 | 0.30 | 81 | 1015.3 |
| 20260507103216 | 11 | 289 | 11.3 | 0.0 | 0.00 | 0.00 | 0.30 | 80 | 1015.3 |
| 20260507100212 | 11 | 234 | 14.5 | 0.0 | 0.00 | 0.00 | 0.30 | 80 | 1015.2 |
| 20260507093210 | 10 | 17 | 6.4 | 0.0 | 0.00 | 0.00 | 0.30 | 84 | 1014.9 |
| 20260507090211 | 10 | 294 | 11.3 | 0.0 | 0.00 | 0.00 | 0.30 | 88 | 1014.8 |
| 20260507083212 | 9 | 307 | 11.3 | 0.0 | 0.00 | 0.00 | 0.30 | 91 | 1014.5 |
| 20260507080211 | 8 | 304 | 6.4 | 0.0 | 0.00 | 0.00 | 0.30 | 91 | 1014.4 |
| 20260507073212 | 8 | 294 | 11.3 | 0.0 | 0.00 | 0.00 | 0.30 | 91 | 1014.0 |
| 20260507070212 | 8 | 330 | 6.4 | 0.0 | 0.00 | 0.00 | 0.30 | 91 | 1013.9 |
| 20260507063211 | 8 | 245 | 12.9 | 0.0 | 0.00 | 0.00 | 0.30 | 93 | 1013.7 |
| 20260507060211 | 7 | 240 | 6.4 | 0.0 | 0.00 | 0.00 | 0.30 | 93 | 1013.5 |
| 20260507053211 | 7 | 297 | 12.9 | 0.0 | 0.00 | 0.00 | 0.30 | 94 | 1013.2 |
| 20260507050213 | 7 | 257 | 8.0 | 0.0 | 0.00 | 0.00 | 0.28 | 94 | 1012.8 |
| 20260507043211 | 7 | 179 | 1.6 | 0.0 | 0.00 | 0.00 | 0.28 | 94 | 1012.6 |
| 20260507040216 | 7 | 179 | 3.2 | 0.0 | 0.00 | 0.00 | 0.23 | 93 | 1012.2 |
| 20260507033211 | 7 | 179 | 3.2 | 0.0 | 0.00 | 0.00 | 0.20 | 93 | 1012.0 |
| 20260507030211 | 7 | 179 | 4.8 | 0.0 | 0.00 | 0.00 | 0.18 | 93 | 1011.8 |
| 20260507023211 | 7 | 171 | 8.0 | 0.0 | 0.00 | 0.00 | 0.15 | 92 | 1011.6 |
| 20260507020211 | 7 | 171 | 3.2 | 0.0 | 0.00 | 0.00 | 0.10 | 92 | 1011.4 |
| 20260507013212 | 7 | 197 | 3.2 | 0.0 | 0.00 | 0.00 | 0.08 | 92 | 1011.2 |
| 20260507010211 | 7 | 194 | 4.8 | 0.0 | 0.00 | 0.00 | 0.08 | 91 | 1011.0 |
| 20260507003209 | 7 | 218 | 11.3 | 0.0 | 0.00 | 0.00 | 0.08 | 92 | 1010.9 |
| 20260507000209 | 7 | 188 | 14.5 | 0.0 | 0.00 | 0.00 | 0.08 | 92 | 1011.0 |
| 20260506233209 | 7 | 236 | 12.9 | 0.0 | 0.00 | 0.00 | 0.08 | 92 | 1011.0 |
| 20260506230209 | 7 | 252 | 8.0 | 0.0 | 0.00 | 0.00 | 0.08 | 92 | 1010.9 |
| 20260506223209 | 7 | 194 | 8.0 | 0.0 | 0.00 | 0.00 | 0.05 | 92 | 1011.1 |
| 20260506213209 | 7 | 188 | 6.4 | 0.0 | 0.00 | 0.00 | 0.69 | 92 | 1010.9 |
| 20260506210210 | 7 | 174 | 4.8 | 0.0 | 0.00 | 0.00 | 0.69 | 92 | 1010.5 |
| 20260506203210 | 8 | 225 | 6.4 | 0.0 | 0.00 | 0.00 | 0.64 | 91 | 1010.5 |
| 20260506200210 | 8 | 240 | 9.7 | 0.0 | 0.00 | 0.00 | 0.58 | 91 | 1010.3 |
| 20260506193215 | 8 | 204 | 9.7 | 0.0 | 0.00 | 0.00 | 0.48 | 91 | 1009.9 |
| 20260506190211 | 8 | 186 | 12.9 | 0.0 | 0.00 | 0.00 | 0.43 | 91 | 1009.5 |
| 20260506183209 | 8 | 184 | 8.0 | 0.0 | 0.00 | 0.00 | 0.36 | 91 | 1009.2 |
| 20260506180216 | 8 | 240 | 6.4 | 0.0 | 0.00 | 0.00 | 0.33 | 91 | 1008.9 |
| 20260506173210 | 8 | 205 | 9.7 | 0.0 | 0.00 | 0.00 | 0.30 | 91 | 1008.5 |
| 20260506170215 | 8 | 262 | 3.2 | 0.0 | 0.00 | 0.00 | 0.28 | 91 | 1008.3 |
| 20260506163210 | 9 | 252 | 9.7 | 0.0 | 0.00 | 0.00 | 0.23 | 89 | 1008.4 |
| 20260506160210 | 9 | 231 | 12.9 | 0.0 | 0.00 | 0.00 | 0.23 | 87 | 1008.3 |
| 20260506153210 | 10 | 234 | 14.5 | 0.0 | 0.00 | 0.00 | 0.20 | 88 | 1008.1 |
| 20260506150210 | 11 | 269 | 11.3 | 0.0 | 0.00 | 0.00 | 0.18 | 89 | 1007.7 |